Eau Claire, WI

2:23 AM CDT on April 24, 2018 (GMT -0500)
Chippewa Valley Regional

Weather History for KEAU - October, 2014

Change the Weather History Date:

Monday, October 13, 2014

  Actual Average Record
Temperature  
Mean Temperature 52 °F 48 °F  
Max Temperature 54 °F 59 °F 84 °F (1956)
Min Temperature 49 °F 38 °F 17 °F (1917)
Degree Days  
Heating Degree Days 13 17  
Month to date heating degree days 250 188  
Since 1 July heating degree days 460 421  
Cooling Degree Days 0 0  
Month to date cooling degree days 0 4  
Year to date cooling degree days 500 579  
Moisture  
Dew Point 49 °F    
Average Humidity 89    
Maximum Humidity 100    
Minimum Humidity 77    
Precipitation  
Precipitation 0.52 in 0.07 in 1.15 in (1986)
Month to date precipitation 1.64 1.15  
Year to date precipitation 39.77 26.95  
Snow  
Snow 0.00 in 0.10 in 1.00 in (1939)
Month to date snowfall 0.6 0.1  
Since 1 July snowfall 0.6 0.1  
Since 1 September snowfall 0.6 0.1  
Snow Depth 0.00 in    
Sea Level Pressure  
Sea Level Pressure 29.79 in    
Wind  
Wind Speed 6 mph (East)    
Max Wind Speed 15 mph    
Max Gust Speed 19 mph    
Visibility 7 miles    
Events Rain    
T = Trace of Precipitation, MM = Missing Value Source: NWS Daily Summary

Daily Weather History Graph

Daily Weather History Graph

Search for Another Location

Airport or City:

Astronomy

Oct. 13, 2014 Rise Set
Actual Time 7:18 AM CDT 6:24 PM CDT
Civil Twilight 6:49 AM CDT 6:54 PM CDT
Nautical Twilight 6:15 AM CDT 7:27 PM CDT
Astronomical Twilight 5:41 AM CDT 8:01 PM CDT
Moon 10:27 PM CDT (10/13) 12:41 PM CDT (10/13)
Length of Visible Light 12h 04m
Length of Day
11h 05m
Waning Gibbous, 70% of the Moon is Illuminated
Oct 13
Waning Gibbous
Oct 15
Last Quarter
Oct 23
New
Oct 30
First Quarter
Nov 6
Full

Hourly Weather History & Observations

Time (CDT) Temp. Dew Point Humidity Pressure Visibility Wind Dir Wind Speed Gust Speed Precip Events Conditions
12:56 AM 52.0 °F 44.1 °F 74% 29.83 in 10.0 mi SSE 8.1 mph - N/A   Overcast
1:45 AM 51.1 °F 45.0 °F 80% 29.82 in 10.0 mi SE 5.8 mph - N/A   Overcast
1:56 AM 51.1 °F 45.0 °F 80% 29.83 in 10.0 mi SSE 8.1 mph - N/A   Overcast
2:53 AM 51.8 °F 46.4 °F 82% 29.82 in 10.0 mi SE 5.8 mph - N/A   Overcast
2:56 AM 51.1 °F 46.0 °F 83% 29.83 in 10.0 mi SE 5.8 mph - N/A   Overcast
3:56 AM 50.0 °F 48.0 °F 93% 29.81 in 3.0 mi East 3.5 mph - N/A   Overcast
4:19 AM 48.9 °F 48.0 °F 97% 29.81 in 3.0 mi ESE 3.5 mph - N/A   Overcast
4:56 AM 48.9 °F 48.0 °F 97% 29.81 in 4.0 mi ESE 3.5 mph - N/A   Overcast
5:56 AM 48.9 °F 48.0 °F 97% 29.81 in 7.0 mi SE 3.5 mph - N/A   Overcast
6:56 AM 50.0 °F 48.0 °F 93% 29.80 in 4.0 mi Calm Calm - N/A   Overcast
7:56 AM 48.9 °F 48.0 °F 97% 29.83 in 5.0 mi SE 3.5 mph - N/A   Overcast
8:56 AM 50.0 °F 48.0 °F 93% 29.83 in 2.0 mi SE 4.6 mph - N/A   Overcast
9:05 AM 50.0 °F 48.0 °F 93% 29.82 in 1.8 mi SSE 6.9 mph - N/A   Overcast
9:18 AM 50.0 °F 48.9 °F 96% 29.82 in 2.5 mi ESE 4.6 mph - N/A   Overcast
9:28 AM 50.0 °F 48.9 °F 96% 29.82 in 5.0 mi ESE 4.6 mph - N/A   Overcast
9:56 AM 51.1 °F 48.9 °F 92% 29.83 in 9.0 mi SE 5.8 mph - N/A   Overcast
10:31 AM 52.0 °F 50.0 °F 93% 29.83 in 10.0 mi SSE 3.5 mph - N/A   Overcast
10:56 AM 52.0 °F 50.0 °F 93% 29.83 in 10.0 mi SE 4.6 mph - N/A   Overcast
11:49 AM 53.1 °F 50.0 °F 89% 29.81 in 10.0 mi SSE 4.6 mph - N/A   Overcast
11:56 AM 53.1 °F 48.9 °F 86% 29.82 in 10.0 mi SSE 4.6 mph - N/A   Overcast
12:16 PM 53.1 °F 50.0 °F 89% 29.81 in 10.0 mi SSE 4.6 mph - N/A   Overcast
12:56 PM 53.1 °F 50.0 °F 89% 29.82 in 10.0 mi Calm Calm - N/A   Overcast
1:24 PM 53.1 °F 50.0 °F 89% 29.79 in 10.0 mi SE 3.5 mph - N/A   Overcast
1:56 PM 53.1 °F 50.0 °F 89% 29.79 in 8.0 mi East 3.5 mph - N/A   Overcast
2:26 PM 53.1 °F 50.0 °F 89% 29.77 in 9.0 mi NE 4.6 mph - N/A   Overcast
2:56 PM 53.1 °F 50.0 °F 89% 29.79 in 8.0 mi East 3.5 mph - N/A   Overcast
3:09 PM 53.1 °F 50.0 °F 89% 29.79 in 9.0 mi ENE 4.6 mph - N/A   Overcast
3:26 PM 53.1 °F 51.1 °F 93% 29.79 in 2.0 mi ENE 3.5 mph - 0.01 in Rain Light Rain
3:56 PM 53.1 °F 51.1 °F 93% 29.79 in 3.0 mi NNE 4.6 mph - 0.03 in Rain Light Rain
4:11 PM 53.1 °F 51.1 °F 93% 29.77 in 4.0 mi NE 4.6 mph - 0.01 in Rain Light Rain
4:20 PM 53.1 °F 51.1 °F 93% 29.77 in 4.0 mi NNE 5.8 mph - 0.01 in Rain Light Rain
4:37 PM 53.1 °F 51.1 °F 93% 29.77 in 6.0 mi NNE 5.8 mph - 0.02 in Rain Light Rain
4:56 PM 52.0 °F 51.1 °F 97% 29.77 in 6.0 mi NNE 5.8 mph - 0.03 in Rain Light Rain
5:09 PM 52.0 °F 51.1 °F 97% 29.76 in 7.0 mi NNE 5.8 mph - 0.01 in Rain Light Rain
5:11 PM 52.0 °F 51.1 °F 97% 29.76 in 7.0 mi NNE 6.9 mph - 0.01 in Rain Light Rain
5:24 PM 52.0 °F 51.1 °F 97% 29.76 in 6.0 mi NNE 5.8 mph - 0.02 in Rain Light Rain
5:56 PM 52.0 °F 50.0 °F 93% 29.76 in 6.0 mi NNE 8.1 mph - 0.04 in Rain Light Rain
6:56 PM 52.0 °F 50.0 °F 93% 29.75 in 7.0 mi NNE 9.2 mph - 0.06 in Rain Light Rain
7:56 PM 52.0 °F 50.0 °F 93% 29.75 in 7.0 mi NNE 9.2 mph - 0.07 in Rain Rain
8:10 PM 52.0 °F 50.0 °F 93% 29.73 in 7.0 mi NNE 9.2 mph - 0.03 in Rain Rain
8:56 PM 52.0 °F 50.0 °F 93% 29.73 in 9.0 mi North 11.5 mph - 0.09 in Rain Light Rain
9:10 PM 52.0 °F 48.9 °F 89% 29.72 in 10.0 mi NNE 9.2 mph - 0.01 in Rain Light Rain
9:56 PM 52.0 °F 48.9 °F 89% 29.73 in 10.0 mi North 10.4 mph - 0.05 in Rain Light Rain
10:43 PM 51.1 °F 48.9 °F 92% 29.70 in 9.0 mi North 10.4 mph - 0.04 in Rain Light Rain
10:56 PM 52.0 °F 48.9 °F 89% 29.71 in 10.0 mi North 10.4 mph - 0.05 in Rain Light Rain
11:56 PM 51.1 °F 48.0 °F 89% 29.70 in 10.0 mi North 10.4 mph - 0.02 in Rain Light Rain